www.pogodaiklimat.ru

Погода и климат >> Архив погоды >> Буркина-Фасо >> Fada N`Gourma


ПОГОДА в Fada N`Gourma

  • Прогноз погоды в Fada N`Gourma
  • Монитор погоды в Fada N`Gourma
  • Климат города

АРХИВ ПОГОДЫ в Fada N`Gourma

Время (UTC), дата Ветер
(напр.,м/с)
 
Видим.   Явления Облачность Т
(С)
Тd
(С)
f
(%)
Тe
(С)
Тes
(С)
Комфортность P
(гПа)
Po
(гПа)
Тmin
(С)
Tmax
(С)
R
(мм)
R24
(мм)
S
(см)
18 19.06 Ю 1 10 км 9/1 600 м
[Sc Ac trans Ci sp]
+32.4 +24.4 63 +45 +45 опасность
перегрева
1007.0 972.8 +34.2
21 19.06 В 8 6000 м гроза, ливневой дождь 10/4 1200 м
[Cb cap Ac As]
+24.9 +21.2 80 +31 +31 очень
душно
1012.0 977.4
03 20.06 штиль 0 10 км в посл. час гроза 9/1 600 м
[Sc Ac As]
+24.6 +21.5 83 +31 +31 очень
душно
1008.6 974.6
06 20.06 Ю 3 10 км 9/0
[Ac trans Ci sp]
+24.6 +23.4 93 +33 +33 очень
душно
1010.1 975.8 +23.2 10
12 20.06 Ю 2 10 км 10/10 600 м
[Sc]
+27.5 +24.4 83 +39 +39 очень
душно
1012.1 977.4
15 20.06 Ю 3 10 км 9/8 600 м
[Cu Sc Ci sp]
+29.4 +24.2 74 +41 +43 опасность
перегрева
1008.4 973.9
18 20.06 ЮВ 3 10 км 9/3 600 м
[Sc Ac As Ci sp]
+27.4 +23.7 80 +37 +37 очень
душно
1009.5 974.9 +30.7
21 20.06 штиль 0 10 км 9/0
[Ac trans Ci sp]
+25.3 +23.0 87 +34 +34 очень
душно
1011.6 977.0
00 21.06 Ю 2 10 км 9/0
[Ac trans Ci sp]
+24.4 +22.1 87 +32 +32 очень
душно
1012.4 977.7
03 21.06 штиль 0 10 км 9/0
[Ci sp]
+23.5 +22.2 92 +30 +30 очень
душно
1011.5 976.9
09 21.06 Ю 2 10 км 9/6 600 м
[Cu Sc Ci sp]
+26.6 +22.7 79 +35 +39 очень
душно
1014.0 979.3
12 21.06 ЮЗ 4 10 км 9/8 600 м
[Cu Sc Ci sp]
+29.6 +22.9 67 +39 +42 очень
душно
1013.4 978.8
15 21.06 Ю 1 10 км 9/6 600 м
[Cu Sc Ci sp]
+30.9 +22.1 59 +40 +44 очень
душно
1011.1 976.6
18 21.06 З 1 10 км 9/1 600 м
[Cu Sc Ci sp]
+29.6 +21.9 63 +38 +38 очень
душно
1010.6 976.0 +31.5
21 21.06 ЮЗ 1 10 км 9/0
[Ci sp]
+27.2 +23.6 81 +37 +37 очень
душно
1012.5 977.9
06 22.06 штиль 0 10 км 9/4 600 м
[Sc Ac As Ci sp]
+25.0 +23.6 92 +34 +34 очень
душно
1016.8 979.2 +24.9
09 22.06 З 3 10 км 9/0
[Ci sp]
+27.7 +24.0 80 +38 +46 очень
душно
1012.4 977.8
12 22.06 СЗ 4 10 км 9/0
[Ci sp]
+32.4 +23.0 58 +43 +54 опасность
перегрева
1001.6 977.3
15 22.06 С 2 10 км 9/1 600 м
[Sc Ci sp]
+34.1 +21.6 48 +42 +50 опасность
перегрева
1008.9 974.7
18 22.06 штиль 0 10 км 9/0
[Ci sp]
+32.6 +24.2 61 +45 +45 опасность
перегрева
1008.8 974.5 +34.4
21 22.06 Ю 1 10 км 9/0
[Ci sp]
+29.7 +25.1 76 +43 +43 опасность
перегрева
1009.1 974.8
00 23.06 штиль 0 10 км 9/0
[Ci sp]
+28.2 +23.3 75 +38 +38 очень
душно
1008.6 975.5
03 23.06 ЮЗ 2 10 км 9/0
[Ci sp]
+27.2 +24.1 83 +38 +38 очень
душно
1009.1 975.0
06 23.06 штиль 0 10 км 9/0
[Ci sp]
+26.5 +23.9 86 +37 +37 очень
душно
1008.4 974.2 +26.5
09 23.06 З 2 10 км 9/0
[Ci sp]
+30.4 +23.4 66 +41 +50 опасность
перегрева
1008.7 974.6
12 23.06 З 2 10 км 9/0
[Ci sp]
+35.3 +22.3 47 +44 +61 опасность
перегрева
1008.1 974.1
15 23.06 СЗ 1 10 км 9/0
[Ci sp]
+37.8 +23.4 44 +48 +59 опасность
перегрева
1005.7 971.9
18 23.06 Ю 2 10 км 9/0
[Ci sp]
+35.4 +25.2 56 +49 +50 опасность
перегрева
1005.6 971.7 +39.1
21 23.06 Ю 2 10 км 9/0
[Ci sp]
+32.0 +24.2 63 +44 +44 опасность
перегрева
1006.1 972.2
03 24.06 штиль 0 10 км в посл. час гроза {дождь} 10/3 600 м
[Sc Ac As]
+23.7 +21.6 88 +30 +30 очень
душно
1007.7 973.6
06 24.06 штиль 0 10 км 9/0
[Ac trans Ci sp]
+23.5 +22.2 92 +30 +31 очень
душно
1006.8 972.7 +22.8 5
12 24.06 СВ 3 10 км 9/1 600 м
[Sc Ac trans Ci sp]
+29.8 +22.6 65 +39 +48 очень
душно
1010.7 976.3
15 24.06 Ю 4 10 км 9/6 600 м
[Cu Sc Ci sp]
+32.0 +23.7 62 +43 +46 опасность
перегрева
1008.5 974.2
21 24.06 ЮВ 2 10 км 6/0
[Ci sp]
+26.8 +23.2 81 +36 +36 очень
душно
1009.2 974.6
00 25.06 Ю 2 10 км 6/0
[Ci sp]
+26.2 +24.4 90 +37 +37 очень
душно
1010.8 976.3
03 25.06 Ю 1 10 км 9/0
[Ac trans Ci ing]
+25.9 +24.3 91 +36 +36 очень
душно
1010.9 976.8
06 25.06 штиль 0 10 км 9/9 400 м
[St]
+25.0 +23.4 91 +34 +34 очень
душно
1012.1 977.5 +25.0
09 25.06 Ю 3 10 км 9/9 600 м
[Sc Ci sp]
+27.8 +24.0 80 +39 +39 очень
душно
1013.6 979.0
15 25.06 штиль 0 10 км гроза, ливневой дождь 9/5 600 м
[Cb cap Ac As]
+26.2 +24.0 88 +36 +40 очень
душно
1011.0 976.4
18 25.06 Ю 2 10 км {гроза} 9/1 600 м
[Sc Ac As Ci sp]
+26.8 +23.2 81 +36 +36 очень
душно
1010.7 976.1 +33.6 7
21 25.06 ЮЗ 1 10 км зарница 9/1 1200 м
[Cb cap Ac As]
+25.8 +24.1 90 +36 +36 очень
душно
1012.6 978.0
00 26.06 штиль 0 10 км 9/0
[Ci sp]
+25.7 +24.4 93 +36 +36 очень
душно
1011.8 977.4
03 26.06 штиль 0 10 км 9/0
[Ci sp]
+25.3 +24.3 94 +35 +35 очень
душно
1011.5 976.8
06 26.06 штиль 0 10 км гроза, ливневой дождь 9/4 600 м
[Cb cap Ac As]
+21.5 +20.9 96 +27 +27 душно 1013.6 978.7 +21.2 17
09 26.06 СЗ 2 10 км гроза без осадков {дождь} 10/1 1200 м
[Cb cap Ac As]
+22.8 +21.6 93 +30 +34 очень
душно
1014.2 979.3
12 26.06 С 1 10 км {гроза, дождь} 9/1 600 м
[Sc Ac As Ci sp]
+25.4 +21.9 81 +33 +45 очень
душно
1012.2 977.4 0.4
15 26.06 Ю 2 10 км 9/1 600 м
[Sc Ac trans Ci sp]
+29.2 +23.2 70 +39 +45 очень
душно
1010.8 976.3

 

Местоположение метеостанции Fada N`Gourma (Буркина-Фасо): широта 12.03 долгота 0.37 высота над уровнем моря 309 м.

В архиве по умолчанию представлена погода в Fada N`Gourma за последнюю неделю. Архивные данные за месяц целиком и за предыдущие месяцы, начиная с января 2011 года, Вы можете получить, выбрав интересующий диапазон дат из раскрывающегося списка и нажав кнопку "Ввод!".

Внимание! Время в таблицах - всемирное. Для получения местного времени необходимо прибавить поправку, которая в Fada N`Gourma равна 0 ч.

Смотрите также архив погоды в соседних городах и на ближайших метеорологических станциях:

Погода в Dapaon (Того) (129 км)
Погода в Mango (Того) (185 км)
Погода в Po (Буркина-Фасо) (192 км)
Погода в Navrongo (Гана) (204 км)
Погода в Ouagadougou (Буркина-Фасо) (209 км)
Погода в Natitingou (Бенин) (220 км)
Погода в Dori (Буркина-Фасо) (227 км)
Погода в Niamey-Aero (Нигер) (253 км)
Погода в Niamtougou (Того) (264 км)
Погода в Tillabery (Нигер) (268 км)

Пояснения к столбцам:

Ветер - указаны скорость ветра в м/с - средняя за 10 мин, порывы в срок и между сроками (в фигурных скобках) и направление, откуда дует ветер: С - северный, СВ - северо-восточный, В - восточный, ЮВ - юго-восточный, Ю - южный, ЮЗ - юго-западный, З - западный, СЗ - северо-западный.
Видимость - горизонтальная дальность видимости в метрах или километрах. При видимости от 1 до 10 км при отсутствии осадков обычно наблюдается дымка, при ухудшении видимости до 1 км и менее - туман. В сухую погоду видимость может ухудшаться дымом, пылью или мглою.
Явления - указаны атмосферные явления, наблюдавшиеся в срок или в последний час перед сроком; фигурными скобками обозначены явления, наблюдавшиеся между сроками (за 1-3 часа до срока); квадратными скобками обозначены град или гололедные отложения с указанием их диаметра в мм.
Облачность - указаны через наклонную черту общая и нижняя облачность в баллах и высота нижней границы облаков в метрах; квадратными скобками обозначены формы облаков: Ci - перистые, Cs - перисто-слоистые, Cc - перисто-кучевые, Ac - высококучевые, As - высокослоистые, Sc - слоисто-кучевые, Ns - слоисто-дождевые, Cu - кучевые, Cb - кучево-дождевые. Подробнее классификацию облаков см. в Атласе облаков (PDF).
T - Температура воздуха - температура, измеренная на высоте 2 м над землей.
Td - Температура точки росы - температура, при понижении до которой содержащийся в воздухе водяной пар достигнет насыщения.
f - Относительная влажность воздуха - влажноcть воздуха, измеренная на высоте 2 м над землей.
Te - Эффективная температура - температура, которую ощущает одетый по сезону человек в тени. Характеристика душности погоды. При расчете учитывается влияние влажности воздуха и скорости ветра на теплоощущения человека.
Tes - Эффективная температура на солнце - температура, которую ощущает человек, с поправкой на солнечный нагрев. Характеристика знойности погоды. Зависит от высоты солнца над горизонтом, облачности и скорости ветра. Ночью, в пасмурную погоду, а также при ветре 12 м/с и более поправка равна нулю.
P - Атмосферное давление - приведенное к уровню моря атмосферное давление.
Po - Атмосферное давление - измеренное на уровне метеостанции атмосферное давление.
Tmin - Минимальная температура - минимум температуры воздуха на высоте 2 м над землей.
Tmax - Максимальная температура - максимум температуры воздуха на высоте 2 м над землей.
R - Количество осадков - Количество выпавших осадков за период времени, мм. При наведении курсора мыши на число - период времени, за который выпало указанное количество осадков.
R24 - Количество осадков - Количество выпавших осадков за 24 часа, мм.
S - Снежный покров - Высота снежного покрова, см. При наведении курсора мыши на число - состояние снежного покрова и степень покрытия местности в баллах.